ARIANE 5 R/B, 43568

Orbit data source: Space-Track

ARIANE 5 R/B, 43568 is space debris originally from a launch on Wed, 25 Jul 2018 UTC launched from the French Guiana (FRGUI). Debris objects in space refer to the collection of defunct objects orbiting the Earth. Examples of debris include non-operational satellites, rocket bodies, and fragments generated from explosions, collisions, or faulty payload assembly.

Loading next visibility...
Identifier
43568, 2018-060E
Orbit
Active
Country
Flag of FRFR
Related business
Manufacturer
ADS/Bremen
Mission
Spacecraft
Bus & Motor
EPS+, AESTUS
Mass
3,300 kg wet, 3,300 kg dry
Launch date (UTC)
2018-07-25 (8 years ago)
Launch vehicle
Unknown
Launch site
French Guiana (FRGUI)
Object type
Payload
Rocket body
Debris
Shape & HBR
Cone + Cyl, 2.7 m
Radar Cross Section
28.860 m², Large (>1 m²)

Expand to show TLE details & history
Last TLE update: 3 days ago

TLE from 3 days ago
0 ARIANE 5 R/B
1 43568U 18060E   26170.05490106 -.00000092  00000-0  00000-0 0  9994
2 43568  56.9909 338.7976 0004283 264.9135  95.0288  1.73227473 50010
Epoch: 2026-06-19T01:19Z
TLE epoch observation values (Epoch: 2026-06-19T01:19:03.451Z)
Latitude
-0.00001°
Longitude
51.73071°
Altitude
22,909.087 km
Speed
3.689 km/s
True Right ascension
22h 35m 08s
True Declination
0° 00' 00"
Sunlit
Object was in daylight at epoch
Visualization orbit readout
Latitude
Unknown
Longitude
Unknown
Altitude
Unknown
Speed
Unknown
Apparent Right ascension
Unknown
Apparent Declination
Unknown
Sunlit
N/A
Visualization observer readout
Local Sidereal Time
21:25:40
Azimuth
Unknown
Elevation
Unknown
Doppler factor
Unknown
Orbital elements
Apogee altitude
22,920.157 km
Perigee altitude
22,895.071 km
Semi-major axis
29,285.751 km
Eccentricity
0.00043
Inclination
56.9909°
RAAN
338.7976°
Arg. of periapsis
264.9135°
True anomaly
95.07769°
Mean anomaly
95.0288°
Eccentric anomaly
95.05324°
Mean motion
0.43307 °/min
Orbital period
831.27 mins
BSTAR
0
Loading maneuver chart data...
Computing Atmospheric mass density...
Loading historical data...
Loading historical data...
Loading historical data...
Loading historical data...
Loading historical data...
Loading historical data...
Loading historical data...
Other satellites on launch #60 in the year 2018 (2018-07-25 UTC)

Documentation

Showing up to 5 results
|